| time (UTC) | temp F | wind direction | speed MPH | gust MPH | rain 1hr in | rain 24hr in | rain mn in | humidity % | barometer mb |
| 20260507000045 | 56 | 168 | 3.0 | 7.0 | 0.00 | 0.01 | 0.01 | 1 | 1006.0 |
| 20260506234540 | 56 | 178 | 2.0 | 7.0 | 0.00 | 0.01 | 0.01 | 1 | 1005.9 |
| 20260506233035 | 56 | 185 | 2.0 | 5.0 | 0.00 | 0.01 | 0.01 | 1 | 1005.9 |
| 20260506231530 | 56 | 205 | 2.0 | 5.0 | 0.00 | 0.01 | 0.01 | 1 | 1005.9 |
| 20260506230038 | 56 | 204 | 2.0 | 5.0 | 0.00 | 0.01 | 0.01 | 1 | 1006.0 |
| 20260506224522 | 56 | 169 | 1.0 | 6.0 | 0.00 | 0.01 | 0.01 | 1 | 1005.8 |
| 20260506223026 | 56 | 172 | 3.0 | 7.0 | 0.00 | 0.01 | 0.01 | 1 | 1005.9 |
| 20260506221513 | 57 | 165 | 4.0 | 9.0 | 0.00 | 0.01 | 0.01 | 1 | 1006.0 |
| 20260506220009 | 57 | 218 | 2.0 | 6.0 | 0.00 | 0.01 | 0.01 | 1 | 1006.3 |
| 20260506214504 | 57 | 208 | 3.0 | 8.0 | 0.00 | 0.01 | 0.01 | 1 | 1006.3 |
| 20260506213105 | 58 | 201 | 2.0 | 7.0 | 0.00 | 0.01 | 0.01 | 1 | 1006.4 |
| 20260506211556 | 58 | 153 | 2.0 | 9.0 | 0.00 | 0.01 | 0.01 | 1 | 1006.5 |
| 20260506210057 | 58 | 202 | 2.0 | 8.0 | 0.00 | 0.01 | 0.01 | 1 | 1006.5 |
| 20260506204550 | 59 | 162 | 3.0 | 7.0 | 0.00 | 0.01 | 0.01 | 1 | 1006.6 |
| 20260506203043 | 59 | 211 | 3.0 | 6.0 | 0.01 | 0.01 | 0.01 | 1 | 1006.8 |
| 20260506201538 | 60 | 221 | 2.0 | 7.0 | 0.01 | 0.01 | 0.01 | 1 | 1006.8 |
| 20260506200034 | 60 | 208 | 2.0 | 9.0 | 0.01 | 0.01 | 0.01 | 1 | 1006.9 |
| 20260506194529 | 61 | 219 | 2.0 | 5.0 | 0.00 | 0.00 | 0.00 | 1 | 1007.0 |
| 20260506193034 | 62 | 222 | 1.0 | 12.0 | 0.00 | 0.00 | 0.00 | 1 | 1007.2 |
| 20260506191521 | 64 | 202 | 2.0 | 6.0 | 0.00 | 0.00 | 0.00 | 10 | 1007.1 |
| 20260506190017 | 64 | 170 | 2.0 | 14.0 | 0.00 | 0.00 | 0.00 | 26 | 1007.1 |
| 20260506184511 | 64 | 159 | 4.0 | 11.0 | 0.00 | 0.00 | 0.00 | 30 | 1007.2 |
| 20260506183007 | 65 | 214 | 5.0 | 10.0 | 0.00 | 0.00 | 0.00 | 36 | 1007.4 |
| 20260506181503 | 65 | 159 | 5.0 | 12.0 | 0.00 | 0.00 | 0.00 | 39 | 1007.6 |
| 20260506180100 | 66 | 207 | 5.0 | 11.0 | 0.00 | 0.00 | 0.00 | 41 | 1007.6 |
| 20260506174554 | 67 | 190 | 4.0 | 14.0 | 0.00 | 0.00 | 0.00 | 44 | 1007.7 |
| 20260506173058 | 68 | 219 | 4.0 | 13.0 | 0.00 | 0.00 | 0.00 | 46 | 1008.2 |
| 20260506171546 | 67 | 160 | 4.0 | 9.0 | 0.00 | 0.00 | 0.00 | 45 | 1008.1 |
| 20260506170046 | 68 | 236 | 5.0 | 15.0 | 0.00 | 0.00 | 0.00 | 47 | 1007.9 |
| 20260506164551 | 68 | 229 | 4.0 | 13.0 | 0.00 | 0.00 | 0.00 | 43 | 1008.3 |
| 20260506163037 | 67 | 112 | 2.0 | 14.0 | 0.00 | 0.00 | 0.00 | 44 | 1008.4 |
| 20260506161529 | 67 | 225 | 4.0 | 8.0 | 0.00 | 0.00 | 0.00 | 42 | 1008.5 |
| 20260506160026 | 67 | 149 | 3.0 | 8.0 | 0.00 | 0.00 | 0.00 | 41 | 1008.8 |
| 20260506154520 | 67 | 196 | 5.0 | 10.0 | 0.00 | 0.00 | 0.00 | 42 | 1009.0 |
| 20260506153016 | 67 | 229 | 4.0 | 10.0 | 0.00 | 0.00 | 0.00 | 40 | 1009.2 |
| 20260506151514 | 67 | 167 | 3.0 | 8.0 | 0.00 | 0.00 | 0.00 | 38 | 1009.2 |
| 20260506150007 | 66 | 225 | 3.0 | 9.0 | 0.00 | 0.00 | 0.00 | 35 | 1009.3 |
| 20260506144502 | 65 | 159 | 3.0 | 8.0 | 0.00 | 0.00 | 0.00 | 30 | 1009.3 |
| 20260506143059 | 66 | 155 | 2.0 | 9.0 | 0.00 | 0.00 | 0.00 | 31 | 1009.2 |
| 20260506141554 | 66 | 161 | 3.0 | 8.0 | 0.00 | 0.00 | 0.00 | 34 | 1009.4 |
| 20260506140050 | 66 | 215 | 3.0 | 8.0 | 0.00 | 0.00 | 0.00 | 38 | 1009.1 |
| 20260506134544 | 66 | 144 | 3.0 | 7.0 | 0.00 | 0.00 | 0.00 | 28 | 1009.3 |
| 20260506133052 | 65 | 224 | 3.0 | 6.0 | 0.00 | 0.00 | 0.00 | 17 | 1009.9 |
| 20260506131537 | 63 | 163 | 3.0 | 8.0 | 0.00 | 0.00 | 0.00 | 6 | 1009.9 |
| 20260506130033 | 63 | 205 | 3.0 | 9.0 | 0.00 | 0.00 | 0.00 | 1 | 1010.0 |
| 20260506124527 | 62 | 246 | 3.0 | 7.0 | 0.00 | 0.00 | 0.00 | 1 | 1009.9 |
| 20260506123023 | 62 | 198 | 3.0 | 9.0 | 0.00 | 0.00 | 0.00 | 1 | 1009.8 |
| 20260506121519 | 60 | 183 | 4.0 | 7.0 | 0.00 | 0.00 | 0.00 | 1 | 1009.7 |
| 20260506120033 | 59 | 165 | 2.0 | 4.0 | 0.00 | 0.00 | 0.00 | 1 | 1010.0 |
| 20260506114510 | 59 | 220 | 2.0 | 7.0 | 0.00 | 0.00 | 0.00 | 1 | 1010.2 |
| 20260506113006 | 59 | 216 | 2.0 | 7.0 | 0.00 | 0.00 | 0.00 | 1 | 1010.4 |
| 20260506111501 | 58 | 221 | 2.0 | 7.0 | 0.00 | 0.00 | 0.00 | 1 | 1010.2 |
| 20260506110113 | 58 | 198 | 2.0 | 4.0 | 0.00 | 0.00 | 0.00 | 1 | 1010.2 |
| 20260506104611 | 58 | 215 | 2.0 | 7.0 | 0.00 | 0.00 | 0.00 | 1 | 1010.2 |
| 20260506103050 | 58 | 162 | 2.0 | 6.0 | 0.00 | 0.00 | 0.00 | 1 | 1010.1 |
| 20260506101545 | 58 | 221 | 1.0 | 4.0 | 0.00 | 0.00 | 0.00 | 1 | 1010.2 |
| 20260506100051 | 58 | 221 | 2.0 | 8.0 | 0.00 | 0.00 | 0.00 | 1 | 1010.0 |
| 20260506094535 | 58 | 203 | 2.0 | 4.0 | 0.00 | 0.00 | 0.00 | 1 | 1009.9 |
| 20260506093031 | 58 | 217 | 1.0 | 5.0 | 0.00 | 0.00 | 0.00 | 1 | 1010.0 |
| 20260506091528 | 58 | 200 | 1.0 | 4.0 | 0.00 | 0.00 | 0.00 | 1 | 1010.0 |
| 20260506090022 | 59 | 192 | 1.0 | 6.0 | 0.00 | 0.00 | 0.00 | 1 | 1010.0 |
| 20260506084536 | 59 | 207 | 2.0 | 6.0 | 0.00 | 0.00 | 0.00 | 1 | 1010.2 |
| 20260506083013 | 59 | 213 | 1.0 | 9.0 | 0.00 | 0.00 | 0.00 | 1 | 1010.3 |
| 20260506081508 | 59 | 224 | 2.0 | 8.0 | 0.00 | 0.00 | 0.00 | 1 | 1010.2 |
| 20260506073158 | 60 | 209 | 4.0 | 9.0 | 0.00 | 0.00 | 0.00 | 1 | 1010.1 |
| 20260506071551 | 60 | 217 | 2.0 | 7.0 | 0.00 | 0.00 | 0.00 | 1 | 1010.1 |
| 20260506061534 | 60 | 220 | 3.0 | 10.0 | 0.00 | 0.00 | 0.00 | 1 | 1010.1 |
| 20260506044508 | 58 | 173 | 2.0 | 6.0 | 0.00 | 0.00 | 0.00 | 1 | 1010.6 |
| 20260506043004 | 59 | 173 | 2.0 | 7.0 | 0.00 | 0.00 | 0.00 | 8 | 1010.7 |
| 20260506041609 | 60 | 186 | 3.0 | 7.0 | 0.00 | 0.00 | 0.00 | 18 | 1010.6 |
| 20260506040059 | 60 | 225 | 2.0 | 7.0 | 0.00 | 0.00 | 0.00 | 22 | 1010.5 |
| 20260506034555 | 59 | 171 | 2.0 | 6.0 | 0.00 | 0.00 | 0.00 | 22 | 1010.5 |
| 20260506033049 | 59 | 228 | 2.0 | 8.0 | 0.00 | 0.00 | 0.00 | 22 | 1010.4 |
| 20260506031545 | 59 | 163 | 2.0 | 5.0 | 0.00 | 0.00 | 0.00 | 25 | 1010.4 |
| 20260506030040 | 59 | 209 | 2.0 | 6.0 | 0.00 | 0.00 | 0.00 | 28 | 1010.4 |
| 20260506024537 | 59 | 138 | 2.0 | 5.0 | 0.00 | 0.00 | 0.00 | 32 | 1010.4 |
| 20260506023049 | 59 | 210 | 2.0 | 7.0 | 0.00 | 0.00 | 0.00 | 36 | 1010.4 |
| 20260506021541 | 60 | 134 | 2.0 | 6.0 | 0.00 | 0.00 | 0.00 | 38 | 1010.3 |
| 20260506020026 | 60 | 194 | 2.0 | 7.0 | 0.00 | 0.00 | 0.00 | 39 | 1010.3 |
| 20260506014519 | 60 | 169 | 3.0 | 6.0 | 0.00 | 0.00 | 0.00 | 39 | 1010.1 |
| 20260506013015 | 60 | 184 | 1.0 | 7.0 | 0.00 | 0.00 | 0.00 | 38 | 1010.2 |
| 20260506011509 | 60 | 212 | 2.0 | 12.0 | 0.00 | 0.00 | 0.00 | 38 | 1010.0 |
| 20260506010005 | 60 | 202 | 3.0 | 6.0 | 0.00 | 0.00 | 0.00 | 38 | 1009.9 |
| 20260506004600 | 60 | 202 | 2.0 | 7.0 | 0.00 | 0.00 | 0.00 | 34 | 1009.8 |
| 20260506003056 | 60 | 218 | 2.0 | 7.0 | 0.00 | 0.00 | 0.00 | 33 | 1009.6 |
| 20260506001555 | 60 | 212 | 2.0 | 6.0 | 0.00 | 0.00 | 0.00 | 35 | 1009.4 |